Lynchburg, VA

5:39 PM EST on November 22, 2019 (GMT -0500)
Lynchburg Regional-Glenn

Weather History for KLYH - September, 2019

Change the Weather History Date:

Monday, September 9, 2019

  Actual Average Record
Temperature  
Mean Temperature 78 °F 70 °F  
Max Temperature 87 °F 81 °F 98 °F (1900)
Min Temperature 69 °F 58 °F 44 °F (1998)
Degree Days  
Heating Degree Days 0 1  
Month to date heating degree days 0 2  
Since 1 July heating degree days 0 5  
Cooling Degree Days 13 5  
Month to date cooling degree days 106 55  
Year to date cooling degree days 1321 953  
Growing Degree Days 28 (Base 50)    
Moisture  
Dew Point 65 °F    
Average Humidity 71    
Maximum Humidity 90    
Minimum Humidity 51    
Precipitation  
Precipitation 0.00 in 0.13 in 1.19 in (1957)
Month to date precipitation T 1.18  
Year to date precipitation 27.58 29.11  
Snow  
Snow 0.00 in - - ()
Month to date snowfall 0.0  
Since 1 July snowfall 0.0  
Since 1 September snowfall 0.0  
Snow Depth 0.00 in    
Sea Level Pressure  
Sea Level Pressure 30.17 in    
Wind  
Wind Speed 5 mph (NE)    
Max Wind Speed 15 mph    
Max Gust Speed 19 mph    
Visibility 10 miles    
Events Thunderstorm    
T = Trace of Precipitation, MM = Missing Value Source: NWS Daily Summary

Daily Weather History Graph

Daily Weather History Graph

Search for Another Location

Airport or City:

Astronomy

Sep. 09, 2019 Rise Set
Actual Time 6:53 AM EDT 7:34 PM EDT
Civil Twilight 6:27 AM EDT 8:00 PM EDT
Nautical Twilight 5:56 AM EDT 8:31 PM EDT
Astronomical Twilight 5:24 AM EDT 9:03 PM EDT
Moon 5:22 PM EDT (9/9) 2:29 AM EDT (9/9)
Length of Visible Light 13h 32m
Length of Day
12h 40m
Waxing Gibbous, 83% of the Moon is Illuminated
Sep 9
Waxing Gibbous
Sep 14
Full
Sep 21
Last Quarter
Sep 28
New
Oct 5
First Quarter

Hourly Weather History & Observations

Time (EDT) Temp. Heat Index Dew Point Humidity Pressure Visibility Wind Dir Wind Speed Gust Speed Precip Events Conditions
12:54 AM 71.1 °F - 62.1 °F 73% 30.10 in 10.0 mi North 10.4 mph - N/A   Scattered Clouds
1:04 AM 72.0 °F - 62.1 °F 71% 30.13 in 10.0 mi NNE 10.4 mph - N/A   Mostly Cloudy
1:54 AM 72.0 °F - 63.0 °F 73% 30.10 in 10.0 mi NNE 9.2 mph - N/A   Overcast
2:54 AM 72.0 °F - 63.0 °F 73% 30.10 in 10.0 mi NNE 9.2 mph - N/A   Overcast
3:54 AM 72.0 °F - 63.0 °F 73% 30.10 in 10.0 mi NNE 6.9 mph - N/A   Overcast
4:46 AM 71.1 °F - 63.0 °F 75% 30.13 in 10.0 mi NNE 6.9 mph - N/A   Overcast
4:54 AM 71.1 °F - 63.0 °F 75% 30.11 in 10.0 mi NNE 8.1 mph - N/A   Overcast
5:54 AM 71.1 °F - 63.0 °F 75% 30.12 in 10.0 mi NNE 9.2 mph - N/A   Overcast
6:17 AM 71.1 °F - 62.1 °F 73% 30.15 in 10.0 mi NNE 6.9 mph - N/A   Overcast
6:35 AM 71.1 °F - 62.1 °F 73% 30.15 in 10.0 mi NNE 6.9 mph - N/A   Overcast
6:51 AM 71.6 °F - 62.6 °F 73% 30.17 in 10.0 mi NNE 3.5 mph - N/A   Overcast
6:54 AM 71.1 °F - 62.1 °F 73% 30.14 in 10.0 mi North 4.6 mph - N/A   Overcast
7:54 AM 72.0 °F - 63.0 °F 73% 30.17 in 10.0 mi NE 6.9 mph - N/A   Overcast
8:36 AM 73.0 °F - 64.0 °F 73% 30.20 in 10.0 mi NNE 5.8 mph - N/A   Scattered Clouds
8:45 AM 72.0 °F - 64.0 °F 76% 30.21 in 10.0 mi NNE 5.8 mph - N/A   Mostly Cloudy
9:54 AM 75.9 °F - 66.0 °F 71% 30.19 in 10.0 mi ENE 6.9 mph - N/A   Overcast
10:54 AM 77.0 °F - 66.0 °F 69% 30.20 in 10.0 mi NNE 5.8 mph - N/A   Mostly Cloudy
11:21 AM 78.1 °F - 66.9 °F 68% 30.22 in 10.0 mi NE 5.8 mph - N/A   Scattered Clouds
11:41 AM 80.1 °F 82.3 °F 66.9 °F 64% 30.21 in 10.0 mi East 5.8 mph - N/A   Mostly Cloudy
11:54 AM 79.0 °F - 66.9 °F 66% 30.19 in 10.0 mi East 5.8 mph - N/A   Overcast
12:54 PM 80.1 °F 82.3 °F 66.9 °F 64% 30.18 in 10.0 mi NE 3.5 mph - N/A   Overcast
1:24 PM 82.0 °F 84.9 °F 68.0 °F 62% 30.21 in 10.0 mi Calm Calm - N/A   Overcast
1:54 PM 82.0 °F 84.5 °F 66.9 °F 60% 30.17 in 10.0 mi NE 8.1 mph - N/A   Mostly Cloudy
2:54 PM 82.0 °F 84.5 °F 66.9 °F 60% 30.16 in 10.0 mi Variable 4.6 mph - N/A   Mostly Cloudy
3:54 PM 84.0 °F 86.3 °F 66.0 °F 55% 30.15 in 10.0 mi Calm Calm - N/A   Partly Cloudy
4:54 PM 84.9 °F 86.6 °F 64.9 °F 51% 30.14 in 10.0 mi Variable 4.6 mph - N/A   Clear
5:54 PM 86.0 °F 88.2 °F 66.0 °F 51% 30.14 in 10.0 mi East 4.6 mph - N/A   Scattered Clouds
6:22 PM 84.0 °F 86.3 °F 66.0 °F 55% 30.18 in 10.0 mi East 5.8 mph - N/A Thunderstorm Partly Cloudy
6:54 PM 77.0 °F - 64.9 °F 66% 30.17 in 10.0 mi ENE 10.4 mph - N/A Thunderstorm Scattered Clouds
7:17 PM 73.9 °F - 64.9 °F 73% 30.21 in 10.0 mi East 5.8 mph - N/A   Clear
7:54 PM 72.0 °F - 64.9 °F 78% 30.19 in 10.0 mi Calm Calm - N/A   Clear
8:54 PM 71.1 °F - 66.0 °F 84% 30.21 in 10.0 mi North 6.9 mph - N/A   Clear
9:54 PM 71.1 °F - 66.0 °F 84% 30.23 in 10.0 mi North 3.5 mph - N/A   Partly Cloudy
10:54 PM 70.0 °F - 66.0 °F 87% 30.23 in 10.0 mi Calm Calm - N/A   Partly Cloudy
11:54 PM 71.1 °F - 66.0 °F 84% 30.24 in 10.0 mi North 3.5 mph - N/A   Partly Cloudy